Weather History for KTIF - April, 2013

Change the Weather History Date:

Tuesday, April 9, 2013

  Actual Average (KLBF) Record (KLBF)
Temperature  
Mean Temperature 24 °F 45 °F  
Max Temperature 30 °F 60 °F 92 °F (1930)
Min Temperature 16 °F 31 °F 14 °F (1982)
Degree Days  
Heating Degree Days 42 20  
Month to date heating degree days 189  
Since 1 July heating degree days 6054  
Cooling Degree Days 0 0  
Month to date cooling degree days 0  
Year to date cooling degree days 0  
Moisture  
Dew Point 15 °F    
Average Humidity 84    
Maximum Humidity 90    
Minimum Humidity 80    
Precipitation  
Precipitation 0.27 in 0.07 in 0.88 in (1943)
Month to date precipitation 0.51  
Year to date precipitation 2.40  
Snow  
Snow 0.00 in 0.10 in 3.40 in (2009)
Month to date snowfall 1.3  
Since 1 July snowfall 26.6  
Snow Depth -    
Sea Level Pressure  
Sea Level Pressure 30.00 in    
Wind  
Wind Speed 15 mph (North)    
Max Wind Speed 22 mph    
Max Gust Speed 29 mph    
Visibility 2 miles    
Events Snow , Thunderstorm    
T = Trace of Precipitation, MM = Missing Value Source: NWS Daily Summary

Daily Weather History Graph

Daily Weather History Graph

Search for Another Location

Airport or City:

Trip Planner

Search our weather history database for the weather conditions in past years. The results will help you decide how hot, cold, wet, or windy it might be!

Date:

Astronomy

Apr. 09, 2013 Rise Set
Actual Time 7:11 AM CDT 8:17 PM CDT
Civil Twilight 6:42 AM CDT 8:45 PM CDT
Nautical Twilight 6:08 AM CDT 9:19 PM CDT
Astronomical Twilight 5:32 AM CDT 9:55 PM CDT
Moon 6:35 AM CDT (4/9) 7:54 PM CDT (4/9)
Length of Visible Light 14h 03m
Length of Day
13h 05m
Waning Crescent, 1% of the Moon is Illuminated
Apr 9
Waning Crescent
Apr 10
New
Apr 18
First Quarter
Apr 25
Full
May 2
Last Quarter

Hourly Weather History & Observations

Time (CDT) Temp. Windchill Dew Point Humidity Pressure Visibility Wind Dir Wind Speed Gust Speed Precip Events Conditions
12:15 AM 31.5 °F 21.4 °F 28.6 °F 89% 29.80 in 5.0 mi NNE 13.8 mph 19.6 mph N/A Snow Light Snow
12:35 AM 30.9 °F 21.7 °F 28.2 °F 90% 29.83 in 4.0 mi NNE 11.5 mph - N/A Snow Light Snow
12:55 AM 30.7 °F 20.9 °F 27.9 °F 89% 29.83 in 7.0 mi NNE 12.7 mph 16.1 mph N/A Snow Light Snow
1:15 AM 30.0 °F 20.0 °F 27.1 °F 89% 29.85 in 4.0 mi NNE 12.7 mph 17.3 mph N/A Snow Light Snow
1:35 AM 29.3 °F 18.2 °F 26.2 °F 88% 29.80 in 7.0 mi NNE 15.0 mph 20.7 mph 0.01 in Snow Light Snow
1:55 AM 28.9 °F 16.9 °F 25.7 °F 88% 29.79 in 4.0 mi NNE 17.3 mph 20.7 mph 0.02 in Snow Light Snow
2:15 AM 28.6 °F 17.2 °F 25.7 °F 89% 29.84 in 5.0 mi NNE 15.0 mph 21.9 mph 0.02 in Snow Light Snow
2:35 AM 28.9 °F 17.3 °F 25.9 °F 88% 29.82 in 2.5 mi NNE 16.1 mph - 0.07 in Snow Light Snow
2:55 AM 28.4 °F 18.5 °F 25.7 °F 90% 29.86 in 1.5 mi North 11.5 mph 19.6 mph 0.11 in Snow Light Snow
3:15 AM 26.8 °F 16.5 °F 24.1 °F 90% 29.85 in 1.0 mi North 11.5 mph 19.6 mph 0.02 in Snow Snow
3:35 AM 24.4 °F 11.9 °F 21.4 °F 88% 29.81 in 1.5 mi North 15.0 mph 24.2 mph 0.05 in Snow Light Snow
3:55 AM 21.9 °F 7.8 °F 18.3 °F 86% 29.80 in 2.0 mi North 17.3 mph 25.3 mph 0.05 in Snow Light Snow
4:15 AM 21.6 °F 6.9 °F 18.0 °F 86% 29.84 in 2.5 mi North 18.4 mph 28.8 mph N/A   Overcast
4:35 AM 20.3 °F 6.6 °F 16.3 °F 85% 29.87 in 3.0 mi North 15.0 mph 25.3 mph N/A   Overcast
4:55 AM 19.4 °F 2.8 °F 15.1 °F 83% 29.80 in 3.0 mi NNE 21.9 mph 26.5 mph N/A Snow Light Snow
5:15 AM 18.5 °F 4.3 °F 14.0 °F 83% 29.88 in 3.0 mi North 15.0 mph 24.2 mph N/A Snow Light Snow
5:35 AM 18.3 °F 3.1 °F 13.6 °F 82% 29.91 in 3.0 mi North 17.3 mph 20.7 mph N/A Snow Light Snow
5:55 AM 18.1 °F 3.9 °F 13.6 °F 83% 29.94 in 2.5 mi North 15.0 mph 23.0 mph N/A Snow Light Snow
6:15 AM 17.6 °F 3.7 °F 13.1 °F 83% 29.97 in 3.0 mi North 13.8 mph 21.9 mph N/A Snow Light Snow
6:35 AM 17.2 °F 2.7 °F 12.2 °F 81% 29.97 in 4.0 mi North 15.0 mph 23.0 mph N/A Snow Light Snow
6:55 AM 17.2 °F 2.7 °F 12.0 °F 80% 29.97 in 5.0 mi North 15.0 mph 23.0 mph N/A Snow Light Snow
7:15 AM 17.2 °F 2.7 °F 12.0 °F 80% 29.98 in 5.0 mi North 15.0 mph 24.2 mph N/A Snow Light Snow
7:35 AM 17.2 °F 1.7 °F 12.4 °F 81% 29.98 in 3.0 mi North 17.3 mph 24.2 mph N/A Snow Light Snow
7:55 AM 17.1 °F 2.5 °F 12.0 °F 81% 30.00 in 3.0 mi North 15.0 mph 23.0 mph N/A Snow Light Snow
8:15 AM 17.2 °F 2.7 °F 12.2 °F 81% 30.00 in 2.5 mi North 15.0 mph 23.0 mph N/A Snow Light Snow
8:35 AM 17.1 °F 2.0 °F 12.2 °F 81% 30.03 in 1.0 mi North 16.1 mph 24.2 mph N/A Snow Light Snow
8:55 AM 16.7 °F 2.6 °F 12.4 °F 83% 30.03 in 1.0 mi North 13.8 mph 21.9 mph N/A Snow Light Snow
9:15 AM 16.9 °F 4.1 °F 12.9 °F 84% 30.04 in 0.8 mi North 11.5 mph 23.0 mph N/A Snow Light Snow
9:35 AM 16.7 °F 2.6 °F 12.7 °F 84% 30.02 in 0.8 mi North 13.8 mph 21.9 mph N/A Snow Light Snow
9:55 AM 16.7 °F 2.6 °F 12.6 °F 84% 30.01 in 1.0 mi North 13.8 mph 26.5 mph N/A Snow Light Snow
10:15 AM 16.7 °F 2.6 °F 12.6 °F 84% 30.02 in 1.0 mi North 13.8 mph 24.2 mph N/A Snow Light Snow
10:35 AM 16.7 °F 3.8 °F 12.2 °F 82% 30.03 in 1.8 mi North 11.5 mph 25.3 mph N/A Snow Light Snow
10:55 AM 16.7 °F 3.8 °F 11.8 °F 81% 30.08 in 1.8 mi North 11.5 mph 19.6 mph N/A Snow Light Snow
11:15 AM 16.5 °F 2.4 °F 12.0 °F 82% 30.08 in 1.2 mi North 13.8 mph 21.9 mph N/A Snow Light Snow
11:35 AM 16.5 °F 2.4 °F 12.0 °F 82% 30.07 in 1.2 mi North 13.8 mph 20.7 mph 0.02 in Snow Light Snow
11:55 AM 16.5 °F 1.3 °F 12.4 °F 84% 30.04 in 0.5 mi North 16.1 mph 25.3 mph 0.03 in Snow Snow
12:15 PM 16.7 °F 0.5 °F 12.2 °F 82% 30.03 in 0.8 mi North 18.4 mph 25.3 mph N/A Snow Light Snow
12:35 PM 16.7 °F 0.5 °F 12.6 °F 84% 30.03 in 0.8 mi North 18.4 mph 27.6 mph N/A Snow Light Snow
12:55 PM 17.2 °F 1.7 °F 12.7 °F 83% 30.05 in 1.0 mi North 17.3 mph 24.2 mph N/A Snow Light Snow
1:15 PM 17.6 °F 2.7 °F 12.7 °F 81% 30.03 in 1.2 mi North 16.1 mph 25.3 mph N/A Snow Light Snow
1:35 PM 18.1 °F 3.4 °F 13.6 °F 83% 30.02 in 1.2 mi North 16.1 mph 23.0 mph N/A Snow Light Snow
1:55 PM 17.6 °F 1.7 °F 13.1 °F 83% 30.02 in 1.2 mi North 18.4 mph 25.3 mph N/A Snow Light Snow
2:15 PM 17.6 °F 2.7 °F 12.4 °F 80% 30.04 in 2.0 mi North 16.1 mph 25.3 mph N/A   Haze
2:35 PM 17.8 °F 2.4 °F 12.7 °F 81% 30.01 in 3.0 mi North 17.3 mph 26.5 mph N/A Snow Light Snow
2:55 PM 17.4 °F 1.9 °F 12.2 °F 80% 30.02 in 1.8 mi North 17.3 mph 28.8 mph N/A Snow Light Snow
3:15 PM 17.2 °F 4.5 °F 12.2 °F 81% 30.09 in 3.0 mi North 11.5 mph 23.0 mph N/A Snow Light Snow
3:35 PM 17.6 °F 4.3 °F 13.1 °F 83% 30.04 in 1.8 mi North 12.7 mph 19.6 mph N/A Snow Light Snow
3:55 PM 17.8 °F 2.9 °F 13.3 °F 83% 30.02 in 1.2 mi North 16.1 mph 24.2 mph N/A Snow Light Snow
4:15 PM 17.4 °F 3.5 °F 13.1 °F 83% 30.03 in 1.0 mi North 13.8 mph 24.2 mph N/A Snow Light Snow
4:35 PM 17.2 °F 5.2 °F 13.1 °F 84% 30.08 in 0.8 mi North 10.4 mph 20.7 mph 0.01 in Snow Light Snow
4:55 PM 17.4 °F 4.7 °F 12.7 °F 82% 30.07 in 2.0 mi North 11.5 mph 17.3 mph 0.01 in Snow Light Snow
5:15 PM 18.0 °F 2.6 °F 13.1 °F 81% 30.04 in 2.0 mi North 17.3 mph 23.0 mph N/A Snow Light Snow
5:35 PM 18.0 °F 3.6 °F 13.5 °F 83% 30.05 in 0.5 mi North 15.0 mph 25.3 mph 0.02 in Snow , Thunderstorm Light Thunderstorms and Snow
5:55 PM 18.1 °F 2.9 °F 14.0 °F 84% 30.06 in 0.5 mi North 17.3 mph 26.5 mph 0.02 in Snow Snow
6:15 PM 18.1 °F 4.4 °F 14.0 °F 84% 30.08 in 1.0 mi North 13.8 mph 24.2 mph N/A Snow Light Snow
6:35 PM 18.1 °F 3.4 °F 13.5 °F 82% 30.10 in 1.5 mi North 16.1 mph 24.2 mph N/A Snow Light Snow
6:55 PM 18.1 °F 3.4 °F 13.5 °F 82% 30.12 in 1.8 mi North 16.1 mph 23.0 mph N/A Snow Light Snow
7:15 PM 18.1 °F 3.4 °F 12.9 °F 80% 30.11 in 4.0 mi North 16.1 mph 23.0 mph N/A   Haze
7:35 PM 18.3 °F 5.2 °F 13.3 °F 81% 30.10 in 2.5 mi North 12.7 mph 21.9 mph N/A Snow Light Snow
7:55 PM 18.3 °F 4.6 °F 13.5 °F 81% 30.14 in 1.5 mi NNW 13.8 mph - N/A Snow Light Snow
8:15 PM 18.3 °F 3.6 °F 14.2 °F 84% 30.13 in 0.5 mi North 16.1 mph 24.2 mph 0.01 in Snow Snow
8:35 PM 18.5 °F 4.3 °F 14.9 °F 86% 30.16 in 0.8 mi NNW 15.0 mph 20.7 mph 0.03 in Snow Snow
8:55 PM 18.5 °F 4.9 °F 14.9 °F 86% 30.11 in 0.8 mi North 13.8 mph 19.6 mph 0.03 in Snow Snow
9:15 PM 18.5 °F 4.9 °F 14.9 °F 86% 30.12 in 1.0 mi North 13.8 mph 20.7 mph N/A Snow Light Snow
9:55 PM 18.9 °F 3.8 °F 14.9 °F 85% 30.08 in 1.8 mi North 17.3 mph 24.2 mph N/A Snow Light Snow
10:15 PM 19.2 °F 4.3 °F 15.1 °F 84% 30.08 in 3.0 mi North 17.3 mph 23.0 mph N/A   Overcast
10:35 PM 19.4 °F 5.0 °F 15.3 °F 84% 30.06 in 3.0 mi North 16.1 mph 25.3 mph N/A   Overcast
10:55 PM 19.8 °F 5.9 °F 15.3 °F 83% 30.10 in 7.0 mi North 15.0 mph 21.9 mph N/A   Overcast
11:15 PM 19.9 °F 7.9 °F 15.3 °F 82% 30.17 in 7.0 mi NNW 11.5 mph 21.9 mph N/A   Overcast